Weather in Payvino

Russia / Novosibirsk Oblast     54°24′06″N   84°07′26″E
temp.,
°C
wind,
m/s
gust,
m/s
humid.,
%
clouds,
%
prec.,
mm/h
press.,
hPa
HPBL,
m
19 january, tue
tue1901:00−18w41098100 0.2 1017267
04:00−22wsw36100100 0.0 1019111
07:00−24wsw349989 0.1 102175
10:00−25wsw339845 0.0 102233
13:00−20sw479445 0.0 1023268
16:00−19wsw499471 0.0 1023369
19:00−23w349968 0.0 102544
22:00−26w239967 0.0 102622
20 january, wed
wed2001:00−29w2210062 0.0 102919
04:00−31nw1110010 0.0 103019
07:00−31ene01995 0.0 103119
10:00−30se11921 0.0 103219
13:00−24ese11855 0.0 1032116
16:00−22ene119046 0.0 103123
19:00−24e238870 0.0 103123
22:00−22ese348595 0.0 102987
21 january, thu
thu2101:00−19ese388197 0.0 1026155
04:00−16se41078100 0.0 1022266
07:00−14se5995100 1.6 1020298
10:00−12ssw2896100 0.9 1019288
13:00−11wsw5993100 1.1 1019457
16:00−12sw4795100 0.1 1019391
19:00−16ssw3398100 0.1 101957
22:00−16ssw2397100 0.0 101741
22 january, fri
fri2201:00−14sse2496100 0.0 1014106
04:00−14s2296100 0.0 101272
07:00−13wnw2497100 0.6 1009171
10:00−15wnw2396100 1.2 1010105
13:00−14wnw469498 1.3 1012348
16:00−17wnw3696100 0.1 1013315
19:00−22wsw2299100 0.1 101620
22:00−24wsw2398100 0.0 101721
23 january, sat
sat2301:00−26wsw239896 0.0 101826
04:00−25ssw3798100 0.0 1020176
07:00−26ssw51097100 0.1 1021294
10:00−24ssw51098100 0.3 1021385
13:00−20ssw5996100 0.8 1020573
16:00−17sw61094100 0.5 1019877
19:00−18wsw2498100 0.9 102196
22:00−19wsw3798100 0.2 1023219